Weather in Minneapolis

United States     44°58′13″N   93°16′04″W
temp.,
°C
wind,
m/s
gust,
m/s
humid.,
%
clouds,
%
prec.,
mm/h
press.,
hPa
HPBL,
m
18 may, tue
tue1801:00+17se310790 0.0 1020437
04:00+15se310890 0.0 1020446
07:00+15se39860 0.0 1019332
10:00+20se47615 0.0 1019903
13:00+22se595999 0.1 10181438
16:00+19sse51070100 0.4 1017913
19:00+18se4980100 0.5 1015835
22:00+16se3891100 0.3 1015670
19 may, wed
wed1901:00+16se3893100 0.4 1014536
04:00+16sse2795100 0.1 1014447
07:00+16sse2697100 0.3 1015380
10:00+17sse3795100 0.1 1015413
13:00+20s3585100 0.3 1015602
16:00+22s3671100 0.2 1015884
19:00+19sse4891100 1.1 1014455
22:00+18se3897100 2.3 1015342
20 may, thu
thu2001:00+18se51196100 5.0 1013781
04:00+17sse51295100 1.4 1012878
07:00+17s51294100 2.2 1014760
10:00+19ssw51088100 0.1 10141002
13:00+24ssw5964100 0.2 10151279
16:00+23ssw5869100 0.2 10151047
19:00+23ssw4869100 0.3 10151028
22:00+20s51182100 5.4 1016454
21 may, fri
fri2101:00+18s31190100 6.6 1018703
04:00+17s2895100 0.7 1018488
07:00+18ssw279598 0.9 1018315
10:00+20sw2581100 0.0 1019474
13:00+22sw3468100 0.1 1019845
16:00+27ssw235054 0.0 10181618
19:00+24se1263100 0.0 101967
22:00+21ese2679100 0.0 1020180
22 may, sat
sat2201:00+20se2793100 1.4 1020203
04:00+19s299795 0.2 1020297
07:00+20ssw399522 0.2 1021391
10:00+25ssw4770100 0.0 1019839
13:00+30sw585182 0.0 10181584
16:00+30sw684816 0.0 10161873
19:00+28sw585588 0.0 10161200
22:00+24sw410785 0.6 1016560